FREGAT R/B

Satellite information

Favourite Embed

Satellite Type and Status

ROCKET BODYIN ORBIT

Key statistics

Satellite FREGAT R/B at a glance.

Uptime

3458

Days in orbit

Revolutions

≈ 2.0

Per day

Orbit

HEO

HEO

Inclination

63.1

Latest

Satellite identification and parameters

Extended collection of information and parameters for FREGAT R/B.

Object identification

Identified? True

Debris? False

Object name: FREGAT R/B

International designator: 2015-066B

Object number (NORAD): 41033

Object ID (CCSDS): 41033

Country: COMMONWEALTH OF INDEPENDENT STATES (CIS)

Current information (Y/N): Y

RCS size: LARGE

Orbital parameters

Period: 713.926 minutes

Inclination: 63.093 deg

SMA: 26460.346 km

Apoapsis: 39785.048 km

Periapsis: 379.374 km

RAAN: 17.977 deg

Eccentricy: 0.7446175

Argument of periapsis: 264.0811 deg

Mean anomaly: 15.2773 deg

Mean motion: 2.01701661 rev/day

Mean motion (dot): -0.00001384 rev/day2

B* drag term: 0.00063713 1/REarth

Two-line elements (TLE)

Creation date: May 6, 2025, 3:54 a.m.

Reference frame: TEME

Reference center: EARTH

Epoch: May 4, 2025, 4:04 p.m. UTC

TLE line 0: 0 FREGAT R/B

TLE line 1: 1 41033U 15066B 25124.66968045 -.00001384 00000-0 63713-3 0 9997

TLE line 2: 2 41033 63.0930 17.9770 7446175 264.0811 15.2773 2.01701661 69678

Live tracking on map

Real-time ground track for satellite FREGAT R/B.

In-orbit conjunctions

There are no conjunctions computed for FREGAT R/B, at the moment. Check back to stay up to date, as we update our databases every day.

Go to all conjunctions

Associated space launch

The Tundra or EKS (meaning Unified Space System) series of satellites is the next generation of Russian early warning satellites.

FREGAT R/B was lifted into orbit during the mission ‘Soyuz-2.1b/Fregat | EKS (Tundra) (Kosmos 2510)’, on board a Soyuz 2.1b/Fregat space rocket.

The launch took place on Nov. 17, 2015, 6:33 a.m. from 43/4 (43R).

For more information about the launch, click the button.

Launch to space Soyuz-2.1b/Fregat | EKS (Tundra) (Kosmos 2510)
Soyuz-2.1b/Fregat | EKS (Tundra) (Kosmos 2510)

Agency: N/A

Status: Launch Successful

Launch date: Nov. 17, 2015, 6:33 a.m. UTC

Rocket: Soyuz 2.1b/Fregat

Launch pad: 43/4 (43R)

Location: Plesetsk Cosmodrome, Russian Federation

...

Latest news about this satellite

There are no fresh news available about this satellite. Check back as we update our databases every day.


Newsletter sign-up

Weekly statistics, charts and insights to help you stay on top of the space industry.